STARLINK-5519, 57223

Orbit data source: Space-Track

STARLINK-5519, 57223 is a payload satellite owned by SpaceX/Seattle (US) in LEO that was launched on Fri, 07 Jul 2023 UTC via an FALCON 9 launch vehicle from the Air Force Western Test Range (AFWTR). Payload-class satellites include a variety of spacecraft equipped with specific instruments for various scientific and technological missions. These include communications satellites like Starlink; space stations such as the ISS; scientific satellites like the Hubble; Earth observation satellites from companies like Planet Labs, Umbra, and HawkEye 360; GPS; miniature CubeSats for education and research; and military/defense satellites.

Loading next visibility...
Identifier
57223, 2023-094F
Orbit
LEO
Country
Flag of USUS
Related business
Manufacturer
SpaceX/Seattle
Mission
Operational Commercial Communications
Bus & Motor
STARLINK, Unknown motor
Mass
305 kg wet, ~290 kg dry
Launch date (UTC)
2023-07-07 (3 years ago)
Launch vehicle
FALCON 9
Launch site
Air Force Western Test Range (AFWTR)
Object type
Payload
Rocket body
Debris
Shape & HBR
Box + 1 Pan, 10.1 m
Radar Cross Section
11.087 m², Large (>1 m²)

Expand to show TLE details & history
Last TLE update: 8 hours ago

TLE from 8 hours ago
0 STARLINK-5519
1 57223U 23094F   26167.78620714  .00000334  00000-0  21647-4 0  9998
2 57223  43.0016 194.2670 0000958 275.9366  84.1376 15.27578857162232
Epoch: 2026-06-16T18:52Z
TLE epoch observation values (Epoch: 2026-06-16T18:52:08.296Z)
Latitude
-0.00007°
Longitude
6.17912°
Altitude
482.761 km
Speed
7.626 km/s
True Right ascension
12h 57m 04s
True Declination
0° 00' 00"
Sunlit
Object was in daylight at epoch
Visualization orbit readout
Latitude
Unknown
Longitude
Unknown
Altitude
Unknown
Speed
Unknown
Apparent Right ascension
Unknown
Apparent Declination
Unknown
Sunlit
N/A
Visualization observer readout
Local Sidereal Time
13:17:04
Azimuth
Unknown
Elevation
Unknown
Doppler factor
Unknown
Orbital elements
Apogee altitude
485.655 km
Perigee altitude
484.34 km
Semi-major axis
6,863.134 km
Eccentricity
0.0001
Inclination
43.0016°
RAAN
194.267°
Arg. of periapsis
275.9366°
True anomaly
84.14852°
Mean anomaly
84.1376°
Eccentric anomaly
84.14306°
Mean motion
3.81733 °/min
Orbital period
94.31 mins
BSTAR
0.000021647
Loading maneuver chart data...
Computing Atmospheric mass density...
Loading historical data...
Loading historical data...
Loading historical data...
Loading historical data...
Loading historical data...
Loading historical data...
Loading historical data...

Documentation

Showing up to 5 results
|